Torna al catalogo

FENGYUN 1C DEB

AttivoSSO
NORAD 30114·DEBRIS·🇨🇳 China

Lanciato May 10, 1999 da Taiyuan Satellite Launch Center

Loading…

Prossimi Passaggi (prossime 24 ore)

TLE

AggiornatoSource: Space-Track

Epoca: Sep 14, 2026, 18:21 UTC

1 30114U 99025RT  26257.76502509  .00000219  00000-0  14421-3 0  9997
2 30114  98.7548 257.5151 0082180  59.4106 115.8219 14.09834129 10438

Traccia FENGYUN 1C DEB in tempo reale con AllMySat

Download on the App Store